User: anonymous   Login
Location: *
(43.9905°S, 176.4941°W)
Time: 12:04:10
(UTC+00:00)
Language:

COSMOS 2487 - Orbit

View from above orbital plane
View from above orbital plane
View from above satellite
View from above satellite

Ground track
Ground track

The orbit data is extracted from the following two-line orbital elements,

1 39194U 13032A   20056.61058823  .00002482  00000-0  62395-4 0  9996
2 39194  74.7094 277.8850 0002885 188.2642 171.8524 15.40518388372698
Epoch (UTC): 25 February 2020 14:39:14
Eccentricity: 0.0002885
inclination: 74.7094°
perigee height: 442 km
apogee height: 446 km
right ascension of ascending node: 277.8850°
argument of perigee: 188.2642°
revolutions per day: 15.40518388
mean anomaly at epoch: 171.8524°
orbit number at epoch: 37269

The dashed part of the orbit path shows where the satellite is in the earth's shadow,  

DLR